Вернуться в каталог

QIANFAN-102

АктивенСвязьPO
NORAD 66044·PAYLOAD·🇨🇳 China

Запущен Oct 17, 2025 с Taiyuan Satellite Launch Center

Loading…

Ближайшие Пролёты (ближайшие 24 часа)

TLE

СвежийSource: Space-Track

Эпоха: Sep 14, 2026, 08:23 UTC

1 66044U 25233M   26257.34950523  .00000065  00000-0  82755-4 0  9990
2 66044  89.0049  34.0878 0001742  98.0452 262.0897 13.51027871 45271

Отслеживайте QIANFAN-102 в реальном времени с AllMySat

Download on the App Store